[[{"header":{"parameterUnit":"m.s-1","parameterCategory":1,"la1":30.2991,"la2":30.254,"lo1":-89.0895,"lo2":-89.0444,"dy":0.0017,"dx":0.0017,"nx":28,"ny":28,"refTime":"2023-09-15T03:00:00:Z","depth":0,"parameterNumber":2,"parameterNumberName":"U-component_of_WINDS"},"data":[0,0,0,0,0,0,0,0,0,0,0,0,0,0,0,0,0,0,0,0,0,0,0,0,0,0,0,0,0,0,0,0,0,0,0,0,0,0,0,0,0,0,0,0,0,0,0,0,0,0,0,0,0,0,0,0,0,0,-2.5674,-2.5673,0,-2.5592,-2.5591,-2.559,-2.5469,-2.5467,-2.5465,-2.5463,-2.5379,-2.5379,-2.5379,0,0,0,0,0,0,0,0,0,0,0,0,0,-2.5727,-2.5726,-2.5674,-2.5673,-2.5672,-2.5592,-2.5591,-2.559,-2.5469,-2.5467,-2.5464,-2.5462,-2.5379,-2.5379,-2.5379,0,0,0,0,0,0,0,0,0,0,0,0,0,-2.568,-2.5726,-2.5674,-2.5602,-2.5595,-2.5592,-2.5591,-2.5589,-2.547,-2.5467,-2.5463,-2.546,-2.5379,-2.5379,-2.5379,-2.544,0,0,-2.5378,-2.5377,0,0,0,0,0,0,0,0,-2.5683,-2.5678,-2.5614,-2.5607,-2.5599,-2.5537,-2.5579,-2.5539,-2.5471,-2.5517,-2.5463,-2.5459,-2.5434,-2.5429,-2.5421,-2.5436,-2.5433,-2.5378,-2.5377,-2.5377,-2.5377,0,0,0,0,0,0,0,-2.5686,-2.5681,-2.5641,-2.5613,-2.5604,-2.5574,-2.5564,-2.5571,-2.5495,-2.5513,-2.5504,-2.5496,-2.543,-2.5422,-2.5418,-2.5431,-2.5378,-2.5377,-2.5377,-2.5377,-2.5492,-2.5495,0,0,0,0,0,0,-2.57,-2.5685,-2.5644,-2.5639,-2.5634,-2.5576,-2.5564,-2.556,-2.5494,-2.5481,-2.5499,-2.5491,-2.5424,-2.5419,-2.5415,-2.5481,-2.5377,-2.5377,-2.5377,-2.5489,-2.5493,-2.5496,0,0,0,0,0,0,-2.5702,-2.5698,-2.5647,-2.5659,-2.5651,-2.5578,-2.5575,-2.556,-2.5552,-2.5483,-2.5469,-2.5504,-2.5421,-2.5415,-2.5434,-2.5477,-2.5377,-2.5376,-2.5485,-2.549,-2.5495,-2.5616,0,0,0,0,0,0,-2.5704,-2.5699,-2.5721,-2.5661,-2.565,-2.5669,-2.5577,-2.5561,-2.5552,-2.554,-2.5485,-2.5473,-2.5418,-2.5436,-2.5434,-2.5474,-2.5376,-2.5481,-2.5487,-2.5493,-2.5608,-2.5624,-2.5639,0,0,0,0,0,-2.5706,-2.5759,-2.5723,-2.5719,-2.5677,-2.5671,-2.5665,-2.5601,-2.5556,-2.5577,-2.5533,-2.5474,-2.5473,-2.5439,-2.5436,-2.5477,-2.5478,-2.5486,-2.5493,-2.5601,-2.5621,-2.5638,0,0,0,0,0,0,-2.5827,-2.575,-2.5709,-2.5744,-2.5715,-2.5651,-2.5676,-2.5625,-2.5608,-2.5598,-2.552,-2.5508,-2.5537,-2.5509,-2.5472,-2.5532,-2.5466,-2.5474,-2.555,-2.5568,-2.5583,-2.5589,-2.5376,0,0,0,0,0,-2.5858,-2.5859,-2.5792,-2.5829,-2.5817,-2.575,-2.5745,-2.5698,-2.5665,-2.5652,-2.5609,-2.558,-2.5572,-2.5569,-2.5558,-2.5604,-2.5589,-2.5631,-2.5646,-2.5659,-2.5666,-2.5687,-2.5704,-2.5521,-2.5521,-2.5521,0,0,-2.5921,-2.5879,-2.5885,-2.5852,-2.5824,-2.5828,-2.574,-2.5747,-2.5749,-2.5653,-2.5668,-2.5636,-2.5598,-2.5631,-2.5643,-2.5608,-2.5713,-2.5668,-2.5679,-2.5679,-2.5696,-2.5714,-2.5729,-2.5526,-2.5525,-2.5524,0,0,-2.6037,-2.6006,-2.6033,-2.6007,-2.5966,-2.5921,-2.5928,-2.5872,-2.5847,-2.5861,-2.5789,-2.579,-2.5779,-2.5754,-2.5741,-2.5849,-2.5794,-2.5848,-2.5928,-2.5949,-2.5964,-2.5976,-2.6014,-2.6028,-2.5855,-2.5855,-2.5856,0,-2.6121,-2.6123,-2.6054,-2.6066,-2.6053,-2.5967,-2.5994,-2.5972,-2.593,-2.5924,-2.5885,-2.5869,-2.5838,-2.5863,-2.5889,-2.5882,-2.5886,-2.5853,-2.5967,-2.5979,-2.5989,-2.6024,-2.6039,-2.5862,-2.5861,-2.5861,-2.586,0,-2.6227,-2.623,-2.6257,-2.6218,-2.6209,-2.6229,-2.6163,-2.6162,-2.6117,-2.6076,-2.6092,-2.6051,-2.603,-2.6033,-2.5988,-2.6052,-2.6031,-2.5982,-2.5913,-2.6015,-2.6046,-2.6059,-2.5872,-2.5869,-2.5867,-2.5866,0,0,-2.6416,-2.6339,-2.635,-2.6331,-2.628,-2.6281,-2.6297,-2.6276,-2.6277,-2.6251,-2.6262,-2.6255,-2.6209,-2.6193,-2.6146,-2.6165,-2.6252,-2.6112,-2.611,-2.6139,-2.6318,-2.6355,-2.6372,-2.6216,-2.6218,-2.622,-2.6321,0,-2.6521,-2.6543,-2.6482,-2.6519,-2.652,-2.6439,-2.6453,-2.6423,-2.6386,-2.6382,-2.6341,-2.6336,-2.6276,-2.6266,-2.6282,-2.6239,-2.6287,-2.6231,-2.6225,-2.6225,-2.6235,-2.6388,-2.6427,-2.6524,-2.6333,-2.6335,-2.6337,0,-2.6646,-2.6627,-2.6664,-2.6611,-2.6609,-2.6622,-2.6599,-2.6596,-2.6561,-2.6532,-2.6516,-2.646,-2.6472,-2.6408,-2.6423,-2.6386,-2.638,-2.6359,-2.6361,-2.6356,-2.6286,-2.6387,-2.6553,-2.6568,-2.6356,-2.6354,-2.6353,0,-2.6778,-2.6762,-2.6782,-2.6768,-2.6707,-2.6718,-2.6693,-2.6655,-2.6646,-2.6626,-2.662,-2.6602,-2.6592,-2.6579,-2.652,-2.6479,-2.6542,-2.6473,-2.6518,-2.6519,-2.6533,-2.6533,-2.67,-2.6533,-2.6532,-2.6532,-2.6532,0,-2.6901,-2.6927,-2.684,-2.6852,-2.6879,-2.6809,-2.6837,-2.6804,-2.6771,-2.6775,-2.6705,-2.671,-2.6633,-2.663,-2.6585,-2.6603,-2.66,-2.6577,-2.6564,-2.6582,-2.6585,-2.6576,-2.6567,-2.6536,-2.6535,-2.6534,-2.6534,0,-2.7052,-2.6995,-2.7011,-2.6952,-2.6938,-2.696,-2.6909,-2.6918,-2.6877,-2.6884,-2.6881,-2.6817,-2.681,-2.675,-2.673,-2.6699,-2.6735,-2.671,-2.6747,-2.6738,-2.6786,-2.6782,-2.6952,-2.697,-2.6793,-2.6795,-2.6797,0,-2.7133,-2.7151,-2.7094,-2.7092,-2.707,-2.7068,-2.7059,-2.6991,-2.6985,-2.6947,-2.696,-2.6948,-2.6934,-2.6927,-2.6878,-2.6862,-2.6835,-2.6896,-2.6832,-2.685,-2.6834,-2.6833,-2.6834,-2.6909,-2.6911,-2.6913,-2.6915,0,-2.7283,-2.7254,-2.7244,-2.7225,-2.7216,-2.7198,-2.7175,-2.7177,-2.7102,-2.7099,-2.7091,-2.7081,-2.706,-2.7049,-2.7024,-2.6998,-2.6944,-2.6936,-2.6945,-2.6963,-2.6983,-2.6971,-2.6782,-2.6931,-2.693,-2.6929,-2.6928,-2.6927,-2.74,-2.7412,-2.7374,-2.7365,-2.7341,-2.7321,-2.7326,-2.7286,-2.7278,-2.7256,-2.7217,-2.7215,-2.7179,-2.7142,-2.712,-2.7118,-2.7086,-2.7099,-2.7103,-2.7107,-2.7116,-2.6985,-2.7113,-2.7113,-2.7112,-2.7112,-2.7111,0,-2.7545,-2.7516,-2.7509,-2.7479,-2.7472,-2.7423,-2.7395,-2.7393,-2.7392,-2.7363,-2.7351,-2.7342,-2.7331,-2.7282,-2.7265,-2.7272,-2.7247,-2.727,-2.7267,-2.7262,-2.7146,-2.7139,-2.729,-2.729,-2.729,-2.729,-2.729,-2.729,-2.7619,-2.7636,-2.7603,-2.7608,-2.7579,-2.7576,-2.7564,-2.7546,-2.7523,-2.7516,-2.7506,-2.7474,-2.7437,-2.7417,-2.7405,-2.739,-2.7387,-2.7418,-2.7396,-2.7288,-2.727,-2.7254,-2.7247,-2.7418,-2.7418,-2.7511,-2.7512,-2.7513]},{"header":{"parameterUnit":"m.s-1","parameterCategory":1,"la1":30.2991,"la2":30.254,"lo1":-89.0895,"lo2":-89.0444,"dy":0.0017,"dx":0.0017,"nx":28,"ny":28,"refTime":"2023-09-15T03:00:00:Z","depth":0,"parameterNumber":3,"parameterNumberName":"V-component_of_WINDS"},"data":[0,0,0,0,0,0,0,0,0,0,0,0,0,0,0,0,0,0,0,0,0,0,0,0,0,0,0,0,0,0,0,0,0,0,0,0,0,0,0,0,0,0,0,0,0,0,0,0,0,0,0,0,0,0,0,0,0,0,-2.5302,-2.5303,0,-2.5382,-2.5383,-2.5384,-2.5401,-2.5401,-2.54,-2.5399,-2.5476,-2.5478,-2.5481,0,0,0,0,0,0,0,0,0,0,0,0,0,-2.5158,-2.516,-2.5302,-2.5303,-2.5304,-2.5382,-2.5383,-2.5384,-2.5401,-2.5401,-2.54,-2.5399,-2.5475,-2.5478,-2.5481,0,0,0,0,0,0,0,0,0,0,0,0,0,-2.5227,-2.5161,-2.5302,-2.5322,-2.5325,-2.5382,-2.5383,-2.5384,-2.5401,-2.5401,-2.54,-2.5399,-2.5474,-2.5478,-2.5482,-2.5522,0,0,-2.5493,-2.5495,0,0,0,0,0,0,0,0,-2.5223,-2.5232,-2.5318,-2.5321,-2.5324,-2.5381,-2.536,-2.543,-2.5402,-2.5372,-2.5399,-2.5398,-2.5445,-2.5451,-2.5467,-2.5526,-2.5529,-2.5494,-2.5496,-2.5498,-2.5499,0,0,0,0,0,0,0,-2.5218,-2.5229,-2.5333,-2.5319,-2.5323,-2.5325,-2.5334,-2.5374,-2.5412,-2.5375,-2.5376,-2.5386,-2.5446,-2.5464,-2.5469,-2.553,-2.5494,-2.5497,-2.5499,-2.5501,-2.5625,-2.5625,0,0,0,0,0,0,-2.5211,-2.5225,-2.5331,-2.5336,-2.5271,-2.5328,-2.5338,-2.5363,-2.5412,-2.5418,-2.5386,-2.5386,-2.5458,-2.5465,-2.5472,-2.5522,-2.5498,-2.5501,-2.5503,-2.5624,-2.5625,-2.5626,0,0,0,0,0,0,-2.5208,-2.522,-2.5328,-2.5281,-2.5295,-2.5332,-2.536,-2.5365,-2.5383,-2.5421,-2.5427,-2.5398,-2.5457,-2.5467,-2.551,-2.5525,-2.5503,-2.5506,-2.5622,-2.5624,-2.5625,-2.5623,0,0,0,0,0,0,-2.5203,-2.5219,-2.5236,-2.5281,-2.5297,-2.5366,-2.5361,-2.5367,-2.5391,-2.5391,-2.5433,-2.5439,-2.5457,-2.5504,-2.5514,-2.553,-2.5509,-2.5621,-2.5623,-2.5625,-2.5622,-2.5624,-2.5626,0,0,0,0,0,-2.5198,-2.5231,-2.5237,-2.525,-2.532,-2.5367,-2.5376,-2.5398,-2.5392,-2.5408,-2.5432,-2.5438,-2.5522,-2.5508,-2.5519,-2.5537,-2.562,-2.5623,-2.5625,-2.5621,-2.5624,-2.5626,0,0,0,0,0,0,-2.5185,-2.5238,-2.5245,-2.5294,-2.5326,-2.537,-2.5392,-2.54,-2.5433,-2.5432,-2.5456,-2.5465,-2.5506,-2.5526,-2.551,-2.5578,-2.5571,-2.5575,-2.5564,-2.5567,-2.5569,-2.5563,-2.5513,0,0,0,0,0,-2.5189,-2.5224,-2.5267,-2.5306,-2.5322,-2.5354,-2.5375,-2.539,-2.5423,-2.5436,-2.5463,-2.5493,-2.5527,-2.5548,-2.5581,-2.5625,-2.5633,-2.5642,-2.5645,-2.5646,-2.565,-2.5673,-2.5677,-2.5633,-2.5633,-2.5633,0,0,-2.5195,-2.5228,-2.5249,-2.5305,-2.5331,-2.5365,-2.5365,-2.5402,-2.5427,-2.5441,-2.5484,-2.5504,-2.554,-2.5583,-2.5604,-2.5601,-2.5664,-2.5649,-2.565,-2.5653,-2.5676,-2.568,-2.5683,-2.5635,-2.5634,-2.5634,0,0,-2.5224,-2.5254,-2.5289,-2.5316,-2.5357,-2.5378,-2.5386,-2.5429,-2.5443,-2.5487,-2.5498,-2.5527,-2.5584,-2.5609,-2.5629,-2.5667,-2.5672,-2.5676,-2.5687,-2.571,-2.5713,-2.5717,-2.5729,-2.5733,-2.568,-2.568,-2.568,0,-2.5227,-2.5281,-2.5306,-2.5342,-2.5365,-2.5382,-2.5416,-2.544,-2.5489,-2.5504,-2.55,-2.5572,-2.5597,-2.5646,-2.5655,-2.5671,-2.568,-2.5671,-2.5711,-2.5715,-2.5718,-2.573,-2.5734,-2.568,-2.568,-2.568,-2.568,0,-2.5281,-2.5318,-2.5341,-2.539,-2.5416,-2.5451,-2.5479,-2.5502,-2.5514,-2.5534,-2.5577,-2.5608,-2.5647,-2.566,-2.5671,-2.571,-2.5706,-2.5707,-2.5699,-2.5722,-2.5733,-2.5738,-2.568,-2.568,-2.568,-2.568,0,0,-2.5304,-2.5366,-2.5374,-2.5396,-2.5442,-2.547,-2.5505,-2.5545,-2.5563,-2.5596,-2.5624,-2.5672,-2.5673,-2.5695,-2.5709,-2.5729,-2.5756,-2.5727,-2.5728,-2.573,-2.5798,-2.5797,-2.5802,-2.576,-2.5761,-2.5762,-2.5795,0,-2.5338,-2.5404,-2.5427,-2.548,-2.5513,-2.5529,-2.5559,-2.5589,-2.5609,-2.5638,-2.566,-2.5693,-2.5692,-2.5705,-2.5726,-2.5748,-2.5769,-2.5746,-2.5785,-2.5786,-2.5775,-2.5809,-2.5808,-2.5838,-2.58,-2.5801,-2.5801,0,-2.5387,-2.5422,-2.5479,-2.552,-2.5535,-2.5562,-2.5599,-2.5628,-2.5662,-2.5675,-2.57,-2.5713,-2.5747,-2.5739,-2.5786,-2.5769,-2.5786,-2.58,-2.5801,-2.5805,-2.5794,-2.5812,-2.5848,-2.5852,-2.5809,-2.5808,-2.5808,0,-2.5397,-2.5458,-2.55,-2.5518,-2.5567,-2.5586,-2.5606,-2.564,-2.5662,-2.5694,-2.5708,-2.5743,-2.5762,-2.5788,-2.5809,-2.5801,-2.5853,-2.5847,-2.5863,-2.5863,-2.5873,-2.5872,-2.5912,-2.5886,-2.5886,-2.5886,-2.5885,0,-2.5432,-2.5465,-2.5505,-2.553,-2.5568,-2.5593,-2.5629,-2.5651,-2.568,-2.5708,-2.5723,-2.5749,-2.5775,-2.5804,-2.582,-2.5856,-2.5864,-2.5874,-2.5878,-2.5873,-2.5871,-2.5883,-2.5881,-2.5887,-2.5887,-2.5886,-2.5886,0,-2.5449,-2.5477,-2.5523,-2.5567,-2.5578,-2.5604,-2.564,-2.5664,-2.5684,-2.572,-2.573,-2.5761,-2.5795,-2.5819,-2.5863,-2.5873,-2.5912,-2.5916,-2.5901,-2.5903,-2.5918,-2.5915,-2.5966,-2.5973,-2.5943,-2.5943,-2.5943,0,-2.5469,-2.5496,-2.5542,-2.5563,-2.5585,-2.5618,-2.5641,-2.5667,-2.5689,-2.573,-2.5748,-2.5784,-2.5814,-2.5868,-2.5893,-2.5926,-2.593,-2.5946,-2.5935,-2.5929,-2.5929,-2.5927,-2.5929,-2.5947,-2.5947,-2.5947,-2.5947,0,-2.5502,-2.5514,-2.5548,-2.5586,-2.5614,-2.5644,-2.5675,-2.5691,-2.5721,-2.5745,-2.5782,-2.5805,-2.585,-2.5885,-2.592,-2.5939,-2.5948,-2.5951,-2.5956,-2.595,-2.594,-2.5945,-2.5904,-2.5949,-2.5949,-2.5949,-2.5949,-2.5949,-2.552,-2.5544,-2.5581,-2.5617,-2.5644,-2.5672,-2.5697,-2.5721,-2.5752,-2.5792,-2.5805,-2.5842,-2.5873,-2.5922,-2.5942,-2.597,-2.5968,-2.5976,-2.5978,-2.598,-2.5979,-2.5937,-2.5976,-2.5976,-2.5976,-2.5976,-2.5976,0,-2.5552,-2.5577,-2.5611,-2.5654,-2.5682,-2.569,-2.5724,-2.5746,-2.578,-2.5809,-2.5839,-2.588,-2.5913,-2.5941,-2.5976,-2.5992,-2.5997,-2.6,-2.5999,-2.6003,-2.5979,-2.597,-2.5996,-2.5996,-2.5996,-2.5996,-2.5996,-2.5996,-2.5573,-2.5614,-2.563,-2.5683,-2.5707,-2.5745,-2.5764,-2.5789,-2.5813,-2.5859,-2.5887,-2.5906,-2.5935,-2.5971,-2.6001,-2.6008,-2.602,-2.6022,-2.603,-2.6007,-2.6005,-2.6002,-2.5994,-2.6025,-2.6025,-2.6051,-2.6051,-2.6052]}]]